owner,sensor,date,latitude,longitude,vertical_datum,wind_speed,wind_to_direction,wind_speed_of_gust,qcFlag 
DISL,ioos:station:DISL:KATA:1,2014-01-01T00:00:00Z,30.2583,-88.2131,0.0,8.4,27.0,99.0,'11111222,11111222,11144222' 
DISL,ioos:station:DISL:KATA:1,2014-01-01T00:30:00Z,30.2583,-88.2131,0.0,7.6,53.0,99.0,'11111222,11111222,11144222' 
DISL,ioos:station:DISL:KATA:1,2014-01-01T01:00:00Z,30.2583,-88.2131,0.0,7.7,30.0,99.0,'11111222,11111222,11144222' 
DISL,ioos:station:DISL:KATA:1,2014-01-01T01:30:00Z,30.2583,-88.2131,0.0,8.2,51.0,99.0,'11111222,11111222,11144222' 
DISL,ioos:station:DISL:KATA:1,2014-01-01T02:00:00Z,30.2583,-88.2131,0.0,8.7,55.0,99.0,'11111222,11111222,11144222' 
DISL,ioos:station:DISL:KATA:1,2014-01-01T02:30:00Z,30.2583,-88.2131,0.0,7.6,53.0,99.0,'11111222,11111222,11144222' 
DISL,ioos:station:DISL:KATA:1,2014-01-01T03:00:00Z,30.2583,-88.2131,0.0,7.0,65.0,99.0,'11111222,11111222,11144222' 
DISL,ioos:station:DISL:KATA:1,2014-01-01T03:30:00Z,30.2583,-88.2131,0.0,7.2,58.0,99.0,'11111222,11111222,11144222' 
DISL,ioos:station:DISL:KATA:1,2014-01-01T04:00:00Z,30.2583,-88.2131,0.0,6.2,71.0,99.0,'11111222,11111222,11144222' 
DISL,ioos:station:DISL:KATA:1,2014-01-01T04:30:00Z,30.2583,-88.2131,0.0,6.5,65.0,99.0,'11111222,11111222,11144222' 
DISL,ioos:station:DISL:KATA:1,2014-01-01T05:00:00Z,30.2583,-88.2131,0.0,7.0,84.0,99.0,'11111222,11111222,11144222' 
DISL,ioos:station:DISL:KATA:1,2014-01-01T05:30:00Z,30.2583,-88.2131,0.0,6.2,76.0,99.0,'11111222,11111222,11144222' 
DISL,ioos:station:DISL:KATA:1,2014-01-01T06:00:00Z,30.2583,-88.2131,0.0,5.5,67.0,99.0,'11111222,11111222,11144222' 
DISL,ioos:station:DISL:KATA:1,2014-01-01T06:30:00Z,30.2583,-88.2131,0.0,5.96,73.94,-9999.0,'1111122,1111122,1111122' 
DISL,ioos:station:DISL:KATA:1,2014-01-01T07:00:00Z,30.2583,-88.2131,0.0,5.97,76.96,-9999.0,'1111122,1111122,1111122' 
DISL,ioos:station:DISL:KATA:1,2014-01-01T07:30:00Z,30.2583,-88.2131,0.0,5.22,72.82,-9999.0,'1111122,1111122,1111122' 
DISL,ioos:station:DISL:KATA:1,2014-01-01T08:00:00Z,30.2583,-88.2131,0.0,4.96,76.35,-9999.0,'1111122,1111122,1111122' 
DISL,ioos:station:DISL:KATA:1,2014-01-01T08:30:00Z,30.2583,-88.2131,0.0,5.26,80.2,-9999.0,'1111122,1111122,1111122' 
DISL,ioos:station:DISL:KATA:1,2014-01-01T09:00:00Z,30.2583,-88.2131,0.0,5.53,86.2,-9999.0,'1111122,1111122,1111122' 
DISL,ioos:station:DISL:KATA:1,2014-01-01T09:30:00Z,30.2583,-88.2131,0.0,5.36,84.8,-9999.0,'1111122,1111122,1111122' 
DISL,ioos:station:DISL:KATA:1,2014-01-01T10:00:00Z,30.2583,-88.2131,0.0,5.97,94.0,-9999.0,'1111122,1111122,1111122' 
DISL,ioos:station:DISL:KATA:1,2014-01-01T10:30:00Z,30.2583,-88.2131,0.0,5.54,93.2,-9999.0,'1111122,1111122,1111122' 
DISL,ioos:station:DISL:KATA:1,2014-01-01T11:00:00Z,30.2583,-88.2131,0.0,4.49,81.4,-9999.0,'1111122,1111122,1111122' 
DISL,ioos:station:DISL:KATA:1,2014-01-01T11:30:00Z,30.2583,-88.2131,0.0,4.74,66.17,-9999.0,'1111122,1111122,1111122' 
DISL,ioos:station:DISL:KATA:1,2014-01-01T12:00:00Z,30.2583,-88.2131,0.0,5.75,61.07,-9999.0,'1111122,1111122,1111122' 
DISL,ioos:station:DISL:KATA:1,2014-01-01T12:30:00Z,30.2583,-88.2131,0.0,5.62,72.63,-9999.0,'1111122,1111122,1111122' 
DISL,ioos:station:DISL:KATA:1,2014-01-01T13:00:00Z,30.2583,-88.2131,0.0,6.12,65.95,-9999.0,'1111122,1111122,1111122' 
DISL,ioos:station:DISL:KATA:1,2014-01-01T13:30:00Z,30.2583,-88.2131,0.0,6.45,74.33,-9999.0,'1111122,1111122,1111122' 
DISL,ioos:station:DISL:KATA:1,2014-01-01T14:00:00Z,30.2583,-88.2131,0.0,7.12,88.3,-9999.0,'1111122,1111122,1111122' 
DISL,ioos:station:DISL:KATA:1,2014-01-01T14:30:00Z,30.2583,-88.2131,0.0,6.73,88.1,-9999.0,'1111122,1111122,1111122' 
DISL,ioos:station:DISL:KATA:1,2014-01-01T15:00:00Z,30.2583,-88.2131,0.0,6.64,89.4,-9999.0,'1111122,1111122,1111122' 
DISL,ioos:station:DISL:KATA:1,2014-01-01T15:30:00Z,30.2583,-88.2131,0.0,5.44,70.56,-9999.0,'1111122,1111122,1111122' 
DISL,ioos:station:DISL:KATA:1,2014-01-01T16:00:00Z,30.2583,-88.2131,0.0,5.83,71.53,-9999.0,'1111122,1111122,1111122' 
DISL,ioos:station:DISL:KATA:1,2014-01-01T16:30:00Z,30.2583,-88.2131,0.0,6.04,77.42,-9999.0,'1111122,1111122,1111122' 
DISL,ioos:station:DISL:KATA:1,2014-01-01T17:00:00Z,30.2583,-88.2131,0.0,6.06,74.84,-9999.0,'1111122,1111122,1111122' 
DISL,ioos:station:DISL:KATA:1,2014-01-01T17:30:00Z,30.2583,-88.2131,0.0,6.15,79.37,-9999.0,'1111122,1111122,1111122' 
DISL,ioos:station:DISL:KATA:1,2014-01-01T18:00:00Z,30.2583,-88.2131,0.0,5.82,73.46,-9999.0,'1111122,1111122,1111122' 
DISL,ioos:station:DISL:KATA:1,2014-01-01T18:30:00Z,30.2583,-88.2131,0.0,5.45,69.77,-9999.0,'1111122,1111122,1111122' 
DISL,ioos:station:DISL:KATA:1,2014-01-01T19:00:00Z,30.2583,-88.2131,0.0,5.06,71.0,-9999.0,'1111122,1111122,1111122' 
DISL,ioos:station:DISL:KATA:1,2014-01-01T19:30:00Z,30.2583,-88.2131,0.0,4.97,71.8,-9999.0,'1111122,1111122,1111122' 
DISL,ioos:station:DISL:KATA:1,2014-01-01T20:00:00Z,30.2583,-88.2131,0.0,4.22,67.53,-9999.0,'1111122,1111122,1111122' 
DISL,ioos:station:DISL:KATA:1,2014-01-01T20:30:00Z,30.2583,-88.2131,0.0,4.46,61.07,-9999.0,'1111122,1111122,1111122' 
DISL,ioos:station:DISL:KATA:1,2014-01-01T21:00:00Z,30.2583,-88.2131,0.0,5.3,65.07,-9999.0,'1111122,1111122,1111122' 
DISL,ioos:station:DISL:KATA:1,2014-01-01T21:30:00Z,30.2583,-88.2131,0.0,6.17,71.79,-9999.0,'1111122,1111122,1111122' 
DISL,ioos:station:DISL:KATA:1,2014-01-01T22:00:00Z,30.2583,-88.2131,0.0,4.64,72.41,-9999.0,'1111122,1111122,1111122' 
DISL,ioos:station:DISL:KATA:1,2014-01-01T22:30:00Z,30.2583,-88.2131,0.0,4.91,71.24,-9999.0,'1111122,1111122,1111122' 
DISL,ioos:station:DISL:KATA:1,2014-01-01T23:00:00Z,30.2583,-88.2131,0.0,4.22,68.62,-9999.0,'1111122,1111122,1111122' 
DISL,ioos:station:DISL:KATA:1,2014-01-01T23:30:00Z,30.2583,-88.2131,0.0,4.55,72.69,-9999.0,'1111122,1111122,1111122' 
DISL,ioos:station:DISL:KATA:1,2014-01-02T00:00:00Z,30.2583,-88.2131,0.0,3.92,63.87,-9999.0,'1111122,1111122,1111122' 
DISL,ioos:station:DISL:KATA:1,2014-01-02T00:30:00Z,30.2583,-88.2131,0.0,4.17,59.06,-9999.0,'1111122,1111122,1111122' 
DISL,ioos:station:DISL:KATA:1,2014-01-02T01:00:00Z,30.2583,-88.2131,0.0,5.13,66.54,-9999.0,'1111122,1111122,1111122' 
DISL,ioos:station:DISL:KATA:1,2014-01-02T01:30:00Z,30.2583,-88.2131,0.0,4.66,82.2,-9999.0,'1111122,1111122,1111122' 
DISL,ioos:station:DISL:KATA:1,2014-01-02T02:00:00Z,30.2583,-88.2131,0.0,4.55,81.0,-9999.0,'1111122,1111122,1111122' 
DISL,ioos:station:DISL:KATA:1,2014-01-02T02:30:00Z,30.2583,-88.2131,0.0,5.09,97.3,-9999.0,'1111122,1111122,1111122' 
DISL,ioos:station:DISL:KATA:1,2014-01-02T03:00:00Z,30.2583,-88.2131,0.0,4.37,95.1,-9999.0,'1111122,1111122,1111122' 
DISL,ioos:station:DISL:KATA:1,2014-01-02T03:30:00Z,30.2583,-88.2131,0.0,6.0,77.39,-9999.0,'1111122,1111122,1111122' 
DISL,ioos:station:DISL:KATA:1,2014-01-02T04:00:00Z,30.2583,-88.2131,0.0,6.94,79.04,-9999.0,'1111122,1111122,1111122' 
DISL,ioos:station:DISL:KATA:1,2014-01-02T04:30:00Z,30.2583,-88.2131,0.0,8.9,92.3,-9999.0,'1111122,1111122,1111122' 
DISL,ioos:station:DISL:KATA:1,2014-01-02T05:00:00Z,30.2583,-88.2131,0.0,8.67,100.6,-9999.0,'1111122,1111122,1111122' 
DISL,ioos:station:DISL:KATA:1,2014-01-02T05:30:00Z,30.2583,-88.2131,0.0,5.4,47.21,-9999.0,'1111122,1111122,1111122' 
DISL,ioos:station:DISL:KATA:1,2014-01-02T06:00:00Z,30.2583,-88.2131,0.0,5.19,42.69,-9999.0,'1111122,1111122,1111122' 
DISL,ioos:station:DISL:KATA:1,2014-01-02T06:30:00Z,30.2583,-88.2131,0.0,5.56,57.17,-9999.0,'1111122,1111122,1111122' 
DISL,ioos:station:DISL:KATA:1,2014-01-02T07:00:00Z,30.2583,-88.2131,0.0,5.89,61.51,-9999.0,'1111122,1111122,1111122' 
DISL,ioos:station:DISL:KATA:1,2014-01-02T07:30:00Z,30.2583,-88.2131,0.0,7.34,55.42,-9999.0,'1111122,1111122,1111122' 
DISL,ioos:station:DISL:KATA:1,2014-01-02T08:00:00Z,30.2583,-88.2131,0.0,6.63,58.55,-9999.0,'1111122,1111122,1111122' 
DISL,ioos:station:DISL:KATA:1,2014-01-02T08:30:00Z,30.2583,-88.2131,0.0,6.08,77.37,-9999.0,'1111122,1111122,1111122' 
DISL,ioos:station:DISL:KATA:1,2014-01-02T09:00:00Z,30.2583,-88.2131,0.0,7.04,100.3,-9999.0,'1111122,1111122,1111122' 
DISL,ioos:station:DISL:KATA:1,2014-01-02T09:30:00Z,30.2583,-88.2131,0.0,5.57,83.3,-9999.0,'1111122,1111122,1111122' 
DISL,ioos:station:DISL:KATA:1,2014-01-02T10:00:00Z,30.2583,-88.2131,0.0,4.95,78.98,-9999.0,'1111122,1111122,1111122' 
DISL,ioos:station:DISL:KATA:1,2014-01-02T10:30:00Z,30.2583,-88.2131,0.0,6.65,84.7,-9999.0,'1111122,1111122,1111122' 
DISL,ioos:station:DISL:KATA:1,2014-01-02T11:00:00Z,30.2583,-88.2131,0.0,4.49,75.16,-9999.0,'1111122,1111122,1111122' 
DISL,ioos:station:DISL:KATA:1,2014-01-02T11:30:00Z,30.2583,-88.2131,0.0,5.98,73.96,-9999.0,'1111122,1111122,1111122' 
DISL,ioos:station:DISL:KATA:1,2014-01-02T12:00:00Z,30.2583,-88.2131,0.0,5.33,77.83,-9999.0,'1111122,1111122,1111122' 
DISL,ioos:station:DISL:KATA:1,2014-01-02T12:30:00Z,30.2583,-88.2131,0.0,5.43,92.8,-9999.0,'1111122,1111122,1111122' 
DISL,ioos:station:DISL:KATA:1,2014-01-02T13:00:00Z,30.2583,-88.2131,0.0,3.92,120.6,-9999.0,'1111122,1111122,1111122' 
DISL,ioos:station:DISL:KATA:1,2014-01-02T13:30:00Z,30.2583,-88.2131,0.0,4.35,286.1,-9999.0,'1111122,1111122,1111122' 
DISL,ioos:station:DISL:KATA:1,2014-01-02T14:00:00Z,30.2583,-88.2131,0.0,6.51,308.2,-9999.0,'1111122,1111122,1111122' 
DISL,ioos:station:DISL:KATA:1,2014-01-02T14:30:00Z,30.2583,-88.2131,0.0,4.41,316.1,-9999.0,'1111122,1111122,1111122' 
DISL,ioos:station:DISL:KATA:1,2014-01-02T15:00:00Z,30.2583,-88.2131,0.0,4.83,322.4,-9999.0,'1111122,1111122,1111122' 
DISL,ioos:station:DISL:KATA:1,2014-01-02T15:30:00Z,30.2583,-88.2131,0.0,4.14,320.2,-9999.0,'1111122,1111122,1111122' 
DISL,ioos:station:DISL:KATA:1,2014-01-02T16:00:00Z,30.2583,-88.2131,0.0,6.76,314.0,-9999.0,'1111122,1111122,1111122' 
DISL,ioos:station:DISL:KATA:1,2014-01-02T16:30:00Z,30.2583,-88.2131,0.0,7.69,322.4,-9999.0,'1111122,1111122,1111122' 
DISL,ioos:station:DISL:KATA:1,2014-01-02T17:00:00Z,30.2583,-88.2131,0.0,7.87,320.3,-9999.0,'1111122,1111122,1111122' 
DISL,ioos:station:DISL:KATA:1,2014-01-02T17:30:00Z,30.2583,-88.2131,0.0,8.67,325.2,-9999.0,'1111122,1111122,1111122' 
DISL,ioos:station:DISL:KATA:1,2014-01-02T18:00:00Z,30.2583,-88.2131,0.0,9.53,324.8,-9999.0,'1111122,1111122,1111122' 
DISL,ioos:station:DISL:KATA:1,2014-01-02T18:30:00Z,30.2583,-88.2131,0.0,12.19,332.3,-9999.0,'1111122,1111122,1111122' 
DISL,ioos:station:DISL:KATA:1,2014-01-02T19:00:00Z,30.2583,-88.2131,0.0,11.98,326.7,-9999.0,'1111122,1111122,1111122' 
DISL,ioos:station:DISL:KATA:1,2014-01-02T19:30:00Z,30.2583,-88.2131,0.0,10.09,331.5,-9999.0,'1111122,1111122,1111122' 
DISL,ioos:station:DISL:KATA:1,2014-01-02T20:00:00Z,30.2583,-88.2131,0.0,13.75,340.7,-9999.0,'1111122,1111122,1111122' 
DISL,ioos:station:DISL:KATA:1,2014-01-02T20:30:00Z,30.2583,-88.2131,0.0,15.03,334.7,-9999.0,'1111122,1111122,1111122' 
DISL,ioos:station:DISL:KATA:1,2014-01-02T21:00:00Z,30.2583,-88.2131,0.0,13.47,338.9,-9999.0,'1111122,1111122,1111122' 
DISL,ioos:station:DISL:KATA:1,2014-01-02T21:30:00Z,30.2583,-88.2131,0.0,13.73,342.1,-9999.0,'1111122,1111122,1111122' 
DISL,ioos:station:DISL:KATA:1,2014-01-02T22:00:00Z,30.2583,-88.2131,0.0,15.0,340.4,-9999.0,'1111122,1111122,1111122' 
DISL,ioos:station:DISL:KATA:1,2014-01-02T22:30:00Z,30.2583,-88.2131,0.0,16.04,349.7,-9999.0,'1111122,1111122,1111122' 
DISL,ioos:station:DISL:KATA:1,2014-01-02T23:00:00Z,30.2583,-88.2131,0.0,14.81,344.3,-9999.0,'1111122,1111122,1111122' 
DISL,ioos:station:DISL:KATA:1,2014-01-02T23:30:00Z,30.2583,-88.2131,0.0,15.92,354.3,-9999.0,'1111122,1111122,1111122' 
DISL,ioos:station:DISL:KATA:1,2014-01-03T00:00:00Z,30.2583,-88.2131,0.0,15.01,351.5,-9999.0,'1111122,1111122,1111122' 
DISL,ioos:station:DISL:KATA:1,2014-01-03T00:30:00Z,30.2583,-88.2131,0.0,14.69,346.0,-9999.0,'1111122,1111122,1111122' 
DISL,ioos:station:DISL:KATA:1,2014-01-03T01:00:00Z,30.2583,-88.2131,0.0,12.85,351.8,-9999.0,'1111122,1111122,1111122' 
DISL,ioos:station:DISL:KATA:1,2014-01-03T01:30:00Z,30.2583,-88.2131,0.0,12.6,355.2,-9999.0,'1111122,1111122,1111122' 
DISL,ioos:station:DISL:KATA:1,2014-01-03T02:00:00Z,30.2583,-88.2131,0.0,12.93,348.9,-9999.0,'1111122,1111122,1111122' 
DISL,ioos:station:DISL:KATA:1,2014-01-03T02:30:00Z,30.2583,-88.2131,0.0,13.32,354.9,-9999.0,'1111122,1111122,1111122' 
DISL,ioos:station:DISL:KATA:1,2014-01-03T03:00:00Z,30.2583,-88.2131,0.0,13.52,353.5,-9999.0,'1111122,1111122,1111122' 
DISL,ioos:station:DISL:KATA:1,2014-01-03T03:30:00Z,30.2583,-88.2131,0.0,13.48,352.6,-9999.0,'1111122,1111122,1111122' 
DISL,ioos:station:DISL:KATA:1,2014-01-03T04:00:00Z,30.2583,-88.2131,0.0,13.5,0.567,-9999.0,'1111122,1111122,1111122' 
DISL,ioos:station:DISL:KATA:1,2014-01-03T04:30:00Z,30.2583,-88.2131,0.0,12.88,352.8,-9999.0,'1111122,1111122,1111122' 
DISL,ioos:station:DISL:KATA:1,2014-01-03T05:00:00Z,30.2583,-88.2131,0.0,13.12,351.5,-9999.0,'1111122,1111122,1111122' 
DISL,ioos:station:DISL:KATA:1,2014-01-03T05:30:00Z,30.2583,-88.2131,0.0,11.81,350.8,-9999.0,'1111122,1111122,1111122' 
DISL,ioos:station:DISL:KATA:1,2014-01-03T06:00:00Z,30.2583,-88.2131,0.0,12.5,355.7,-9999.0,'1111122,1111122,1111122' 
DISL,ioos:station:DISL:KATA:1,2014-01-03T06:30:00Z,30.2583,-88.2131,0.0,13.19,352.7,-9999.0,'1111122,1111122,1111122' 
DISL,ioos:station:DISL:KATA:1,2014-01-03T07:00:00Z,30.2583,-88.2131,0.0,11.89,354.4,-9999.0,'1111122,1111122,1111122' 
DISL,ioos:station:DISL:KATA:1,2014-01-03T07:30:00Z,30.2583,-88.2131,0.0,12.24,0.317,-9999.0,'1111122,1111122,1111122' 
DISL,ioos:station:DISL:KATA:1,2014-01-03T08:00:00Z,30.2583,-88.2131,0.0,11.02,349.7,-9999.0,'1111122,1111122,1111122' 
DISL,ioos:station:DISL:KATA:1,2014-01-03T08:30:00Z,30.2583,-88.2131,0.0,11.51,2.294,-9999.0,'1111122,1111122,1111122' 
DISL,ioos:station:DISL:KATA:1,2014-01-03T09:00:00Z,30.2583,-88.2131,0.0,12.71,4.009,-9999.0,'1111122,1111122,1111122' 
DISL,ioos:station:DISL:KATA:1,2014-01-03T09:30:00Z,30.2583,-88.2131,0.0,12.95,5.158,-9999.0,'1111122,1111122,1111122' 
DISL,ioos:station:DISL:KATA:1,2014-01-03T10:00:00Z,30.2583,-88.2131,0.0,12.72,13.82,-9999.0,'1111122,1111122,1111122' 
DISL,ioos:station:DISL:KATA:1,2014-01-03T10:30:00Z,30.2583,-88.2131,0.0,12.39,12.26,-9999.0,'1111122,1111122,1111122' 
DISL,ioos:station:DISL:KATA:1,2014-01-03T11:00:00Z,30.2583,-88.2131,0.0,12.87,15.01,-9999.0,'1111122,1111122,1111122' 
DISL,ioos:station:DISL:KATA:1,2014-01-03T11:30:00Z,30.2583,-88.2131,0.0,12.13,23.61,-9999.0,'1111122,1111122,1111122' 
DISL,ioos:station:DISL:KATA:1,2014-01-03T12:00:00Z,30.2583,-88.2131,0.0,12.69,21.88,-9999.0,'1111122,1111122,1111122' 
DISL,ioos:station:DISL:KATA:1,2014-01-03T12:30:00Z,30.2583,-88.2131,0.0,11.58,17.3,-9999.0,'1111122,1111122,1111122' 
DISL,ioos:station:DISL:KATA:1,2014-01-03T13:00:00Z,30.2583,-88.2131,0.0,11.24,24.47,-9999.0,'1111122,1111122,1111122' 
DISL,ioos:station:DISL:KATA:1,2014-01-03T13:30:00Z,30.2583,-88.2131,0.0,11.48,25.36,-9999.0,'1111122,1111122,1111122' 
DISL,ioos:station:DISL:KATA:1,2014-01-03T14:00:00Z,30.2583,-88.2131,0.0,10.95,22.31,-9999.0,'1111122,1111122,1111122' 
DISL,ioos:station:DISL:KATA:1,2014-01-03T14:30:00Z,30.2583,-88.2131,0.0,10.8,24.92,-9999.0,'1111122,1111122,1111122' 
DISL,ioos:station:DISL:KATA:1,2014-01-03T15:00:00Z,30.2583,-88.2131,0.0,11.17,33.91,-9999.0,'1111122,1111122,1111122' 
DISL,ioos:station:DISL:KATA:1,2014-01-03T15:30:00Z,30.2583,-88.2131,0.0,12.17,35.76,-9999.0,'1111122,1111122,1111122' 
DISL,ioos:station:DISL:KATA:1,2014-01-03T16:00:00Z,30.2583,-88.2131,0.0,11.99,37.81,-9999.0,'1111122,1111122,1111122' 
DISL,ioos:station:DISL:KATA:1,2014-01-03T16:30:00Z,30.2583,-88.2131,0.0,11.92,40.86,-9999.0,'1111122,1111122,1111122' 
DISL,ioos:station:DISL:KATA:1,2014-01-03T17:00:00Z,30.2583,-88.2131,0.0,12.2,41.3,-9999.0,'1111122,1111122,1111122' 
DISL,ioos:station:DISL:KATA:1,2014-01-03T17:30:00Z,30.2583,-88.2131,0.0,11.16,39.8,-9999.0,'1111122,1111122,1111122' 
DISL,ioos:station:DISL:KATA:1,2014-01-03T18:00:00Z,30.2583,-88.2131,0.0,11.33,47.04,-9999.0,'1111122,1111122,1111122' 
DISL,ioos:station:DISL:KATA:1,2014-01-03T18:30:00Z,30.2583,-88.2131,0.0,9.8,38.78,-9999.0,'1111122,1111122,1111122' 
DISL,ioos:station:DISL:KATA:1,2014-01-03T19:00:00Z,30.2583,-88.2131,0.0,9.73,40.41,-9999.0,'1111122,1111122,1111122' 
DISL,ioos:station:DISL:KATA:1,2014-01-03T19:30:00Z,30.2583,-88.2131,0.0,9.74,38.81,-9999.0,'1111122,1111122,1111122' 
DISL,ioos:station:DISL:KATA:1,2014-01-03T20:00:00Z,30.2583,-88.2131,0.0,9.0,35.01,-9999.0,'1111122,1111122,1111122' 
DISL,ioos:station:DISL:KATA:1,2014-01-03T20:30:00Z,30.2583,-88.2131,0.0,9.1,39.87,-9999.0,'1111122,1111122,1111122' 
DISL,ioos:station:DISL:KATA:1,2014-01-03T21:00:00Z,30.2583,-88.2131,0.0,7.85,39.24,-9999.0,'1111122,1111122,1111122' 
DISL,ioos:station:DISL:KATA:1,2014-01-03T21:30:00Z,30.2583,-88.2131,0.0,7.92,35.26,-9999.0,'1111122,1111122,1111122' 
DISL,ioos:station:DISL:KATA:1,2014-01-03T22:00:00Z,30.2583,-88.2131,0.0,6.89,31.64,-9999.0,'1111122,1111122,1111122' 
DISL,ioos:station:DISL:KATA:1,2014-01-03T22:30:00Z,30.2583,-88.2131,0.0,7.05,19.39,-9999.0,'1111122,1111122,1111122' 
DISL,ioos:station:DISL:KATA:1,2014-01-03T23:00:00Z,30.2583,-88.2131,0.0,6.91,26.49,-9999.0,'1111122,1111122,1111122' 
DISL,ioos:station:DISL:KATA:1,2014-01-03T23:30:00Z,30.2583,-88.2131,0.0,6.82,24.53,-9999.0,'1111122,1111122,1111122' 
DISL,ioos:station:DISL:KATA:1,2014-01-04T00:00:00Z,30.2583,-88.2131,0.0,7.28,18.95,-9999.0,'1111122,1111122,1111122' 
DISL,ioos:station:DISL:KATA:1,2014-01-04T00:30:00Z,30.2583,-88.2131,0.0,6.84,26.55,-9999.0,'1111122,1111122,1111122' 
DISL,ioos:station:DISL:KATA:1,2014-01-04T01:00:00Z,30.2583,-88.2131,0.0,6.91,31.51,-9999.0,'1111122,1111122,1111122' 
DISL,ioos:station:DISL:KATA:1,2014-01-04T01:30:00Z,30.2583,-88.2131,0.0,5.91,38.44,-9999.0,'1111122,1111122,1111122' 
DISL,ioos:station:DISL:KATA:1,2014-01-04T02:00:00Z,30.2583,-88.2131,0.0,6.64,45.59,-9999.0,'1111122,1111122,1111122' 
DISL,ioos:station:DISL:KATA:1,2014-01-04T02:30:00Z,30.2583,-88.2131,0.0,8.51,65.35,-9999.0,'1111122,1111122,1111122' 
DISL,ioos:station:DISL:KATA:1,2014-01-04T03:00:00Z,30.2583,-88.2131,0.0,9.2,73.19,-9999.0,'1111122,1111122,1111122' 
DISL,ioos:station:DISL:KATA:1,2014-01-04T03:30:00Z,30.2583,-88.2131,0.0,9.28,79.6,-9999.0,'1111122,1111122,1111122' 
DISL,ioos:station:DISL:KATA:1,2014-01-04T04:00:00Z,30.2583,-88.2131,0.0,9.78,80.3,-9999.0,'1111122,1111122,1111122' 
DISL,ioos:station:DISL:KATA:1,2014-01-04T04:30:00Z,30.2583,-88.2131,0.0,9.94,77.03,-9999.0,'1111122,1111122,1111122' 
DISL,ioos:station:DISL:KATA:1,2014-01-04T05:00:00Z,30.2583,-88.2131,0.0,9.81,73.21,-9999.0,'1111122,1111122,1111122' 
DISL,ioos:station:DISL:KATA:1,2014-01-04T05:30:00Z,30.2583,-88.2131,0.0,10.18,73.51,-9999.0,'1111122,1111122,1111122' 
DISL,ioos:station:DISL:KATA:1,2014-01-04T06:00:00Z,30.2583,-88.2131,0.0,9.42,73.59,-9999.0,'1111122,1111122,1111122' 
DISL,ioos:station:DISL:KATA:1,2014-01-04T06:30:00Z,30.2583,-88.2131,0.0,9.36,70.83,-9999.0,'1111122,1111122,1111122' 
DISL,ioos:station:DISL:KATA:1,2014-01-04T07:00:00Z,30.2583,-88.2131,0.0,9.33,66.09,-9999.0,'1111122,1111122,1111122' 
DISL,ioos:station:DISL:KATA:1,2014-01-04T07:30:00Z,30.2583,-88.2131,0.0,9.52,67.72,-9999.0,'1111122,1111122,1111122' 
DISL,ioos:station:DISL:KATA:1,2014-01-04T08:00:00Z,30.2583,-88.2131,0.0,9.49,70.12,-9999.0,'1111122,1111122,1111122' 
DISL,ioos:station:DISL:KATA:1,2014-01-04T08:30:00Z,30.2583,-88.2131,0.0,9.53,71.55,-9999.0,'1111122,1111122,1111122' 
DISL,ioos:station:DISL:KATA:1,2014-01-04T09:00:00Z,30.2583,-88.2131,0.0,9.5,72.52,-9999.0,'1111122,1111122,1111122' 
DISL,ioos:station:DISL:KATA:1,2014-01-04T09:30:00Z,30.2583,-88.2131,0.0,9.65,72.88,-9999.0,'1111122,1111122,1111122' 
DISL,ioos:station:DISL:KATA:1,2014-01-04T10:00:00Z,30.2583,-88.2131,0.0,9.18,74.3,-9999.0,'1111122,1111122,1111122' 
DISL,ioos:station:DISL:KATA:1,2014-01-04T10:30:00Z,30.2583,-88.2131,0.0,9.58,74.26,-9999.0,'1111122,1111122,1111122' 
DISL,ioos:station:DISL:KATA:1,2014-01-04T11:00:00Z,30.2583,-88.2131,0.0,9.92,74.5,-9999.0,'1111122,1111122,1111122' 
DISL,ioos:station:DISL:KATA:1,2014-01-04T11:30:00Z,30.2583,-88.2131,0.0,9.36,71.89,-9999.0,'1111122,1111122,1111122' 
DISL,ioos:station:DISL:KATA:1,2014-01-04T12:00:00Z,30.2583,-88.2131,0.0,9.58,71.61,-9999.0,'1111122,1111122,1111122' 
DISL,ioos:station:DISL:KATA:1,2014-01-04T12:30:00Z,30.2583,-88.2131,0.0,9.41,70.13,-9999.0,'1111122,1111122,1111122' 
DISL,ioos:station:DISL:KATA:1,2014-01-04T13:00:00Z,30.2583,-88.2131,0.0,9.42,72.34,-9999.0,'1111122,1111122,1111122' 
DISL,ioos:station:DISL:KATA:1,2014-01-04T13:30:00Z,30.2583,-88.2131,0.0,9.78,76.19,-9999.0,'1111122,1111122,1111122' 
DISL,ioos:station:DISL:KATA:1,2014-01-04T14:00:00Z,30.2583,-88.2131,0.0,10.17,79.83,-9999.0,'1111122,1111122,1111122' 
DISL,ioos:station:DISL:KATA:1,2014-01-04T14:30:00Z,30.2583,-88.2131,0.0,10.39,81.4,-9999.0,'1111122,1111122,1111122' 
DISL,ioos:station:DISL:KATA:1,2014-01-04T15:00:00Z,30.2583,-88.2131,0.0,10.62,82.6,-9999.0,'1111122,1111122,1111122' 
DISL,ioos:station:DISL:KATA:1,2014-01-04T15:30:00Z,30.2583,-88.2131,0.0,10.65,83.4,-9999.0,'1111122,1111122,1111122' 
DISL,ioos:station:DISL:KATA:1,2014-01-04T16:00:00Z,30.2583,-88.2131,0.0,10.39,80.6,-9999.0,'1111122,1111122,1111122' 
DISL,ioos:station:DISL:KATA:1,2014-01-04T16:30:00Z,30.2583,-88.2131,0.0,10.14,79.89,-9999.0,'1111122,1111122,1111122' 
DISL,ioos:station:DISL:KATA:1,2014-01-04T17:00:00Z,30.2583,-88.2131,0.0,8.7,79.51,-9999.0,'1111122,1111122,1111122' 
DISL,ioos:station:DISL:KATA:1,2014-01-04T17:30:00Z,30.2583,-88.2131,0.0,7.59,75.7,-9999.0,'1111122,1111122,1111122' 
DISL,ioos:station:DISL:KATA:1,2014-01-04T18:00:00Z,30.2583,-88.2131,0.0,7.46,75.84,-9999.0,'1111122,1111122,1111122' 
DISL,ioos:station:DISL:KATA:1,2014-01-04T18:30:00Z,30.2583,-88.2131,0.0,6.75,74.25,-9999.0,'1111122,1111122,1111122' 
DISL,ioos:station:DISL:KATA:1,2014-01-04T19:00:00Z,30.2583,-88.2131,0.0,7.43,79.43,-9999.0,'1111122,1111122,1111122' 
DISL,ioos:station:DISL:KATA:1,2014-01-04T19:30:00Z,30.2583,-88.2131,0.0,8.14,81.9,-9999.0,'1111122,1111122,1111122' 
DISL,ioos:station:DISL:KATA:1,2014-01-04T20:00:00Z,30.2583,-88.2131,0.0,6.6,76.76,-9999.0,'1111122,1111122,1111122' 
DISL,ioos:station:DISL:KATA:1,2014-01-04T20:30:00Z,30.2583,-88.2131,0.0,6.9,81.8,-9999.0,'1111122,1111122,1111122' 
DISL,ioos:station:DISL:KATA:1,2014-01-04T21:00:00Z,30.2583,-88.2131,0.0,6.67,82.5,-9999.0,'1111122,1111122,1111122' 
DISL,ioos:station:DISL:KATA:1,2014-01-04T21:30:00Z,30.2583,-88.2131,0.0,6.94,84.8,-9999.0,'1111122,1111122,1111122' 
DISL,ioos:station:DISL:KATA:1,2014-01-04T22:00:00Z,30.2583,-88.2131,0.0,5.85,87.6,-9999.0,'1111122,1111122,1111122' 
DISL,ioos:station:DISL:KATA:1,2014-01-04T22:30:00Z,30.2583,-88.2131,0.0,5.53,86.7,-9999.0,'1111122,1111122,1111122' 
DISL,ioos:station:DISL:KATA:1,2014-01-04T23:00:00Z,30.2583,-88.2131,0.0,6.11,92.1,-9999.0,'1111122,1111122,1111122' 
DISL,ioos:station:DISL:KATA:1,2014-01-04T23:30:00Z,30.2583,-88.2131,0.0,6.07,100.7,-9999.0,'1111122,1111122,1111122' 
DISL,ioos:station:DISL:KATA:1,2014-01-05T00:00:00Z,30.2583,-88.2131,0.0,6.3,105.8,-9999.0,'1111122,1111122,1111122' 
DISL,ioos:station:DISL:KATA:1,2014-01-05T00:30:00Z,30.2583,-88.2131,0.0,6.89,93.1,-9999.0,'1111122,1111122,1111122' 
DISL,ioos:station:DISL:KATA:1,2014-01-05T01:00:00Z,30.2583,-88.2131,0.0,6.56,87.4,-9999.0,'1111122,1111122,1111122' 
DISL,ioos:station:DISL:KATA:1,2014-01-05T01:30:00Z,30.2583,-88.2131,0.0,7.04,88.7,-9999.0,'1111122,1111122,1111122' 
DISL,ioos:station:DISL:KATA:1,2014-01-05T02:00:00Z,30.2583,-88.2131,0.0,7.29,90.6,-9999.0,'1111122,1111122,1111122' 
DISL,ioos:station:DISL:KATA:1,2014-01-05T02:30:00Z,30.2583,-88.2131,0.0,6.6,83.3,-9999.0,'1111122,1111122,1111122' 
DISL,ioos:station:DISL:KATA:1,2014-01-05T03:00:00Z,30.2583,-88.2131,0.0,6.93,93.7,-9999.0,'1111122,1111122,1111122' 
DISL,ioos:station:DISL:KATA:1,2014-01-05T03:30:00Z,30.2583,-88.2131,0.0,7.75,89.1,-9999.0,'1111122,1111122,1111122' 
DISL,ioos:station:DISL:KATA:1,2014-01-05T04:00:00Z,30.2583,-88.2131,0.0,8.13,84.1,-9999.0,'1111122,1111122,1111122' 
DISL,ioos:station:DISL:KATA:1,2014-01-05T04:30:00Z,30.2583,-88.2131,0.0,7.76,82.6,-9999.0,'1111122,1111122,1111122' 